| time (UTC) | temp C | wind direction | speed KPH | gust KPH | rain 1hr cm | rain 24hr cm | rain mn cm | humidity % | barometer mb |
| 20260509053016 | 17 | 0.0 | 1.6 | 0.00 | 0.00 | 0.00 | 30 | 1014.3 | |
| 20260509050137 | 18 | 0.0 | 1.6 | 0.00 | 0.00 | 0.00 | 30 | 1014.3 | |
| 20260509043056 | 18 | 0.0 | 3.2 | 0.00 | 0.00 | 0.00 | 28 | 1013.7 | |
| 20260509040016 | 19 | 0.0 | 1.6 | 0.00 | 0.00 | 0.00 | 26 | 1013.7 | |
| 20260509033016 | 20 | 0.0 | 4.8 | 0.00 | 0.00 | 0.00 | 24 | 1013.4 | |
| 20260509030016 | 21 | 0.0 | 6.4 | 0.00 | 0.00 | 0.00 | 24 | 1012.6 | |
| 20260509023016 | 21 | 23 | 3.2 | 8.0 | 0.00 | 0.00 | 0.00 | 23 | 1012.2 |
| 20260509020021 | 22 | 0 | 6.4 | 16.1 | 0.00 | 0.00 | 0.00 | 22 | 1012.3 |
| 20260509013016 | 23 | 0 | 9.7 | 25.7 | 0.00 | 0.00 | 0.00 | 20 | 1012.5 |
| 20260509010016 | 23 | 0 | 14.5 | 32.2 | 0.00 | 0.00 | 0.00 | 21 | 1012.7 |
| 20260509003015 | 23 | 338 | 11.3 | 29.0 | 0.00 | 0.00 | 0.00 | 20 | 1012.8 |
| 20260509000015 | 23 | 338 | 11.3 | 27.4 | 0.00 | 0.00 | 0.00 | 21 | 1013.1 |
| 20260508233015 | 24 | 338 | 12.9 | 29.0 | 0.00 | 0.00 | 0.00 | 21 | 1013.0 |
| 20260508230015 | 24 | 338 | 11.3 | 29.0 | 0.00 | 0.00 | 0.00 | 23 | 1013.6 |
| 20260508223038 | 24 | 338 | 11.3 | 30.6 | 0.00 | 0.00 | 0.00 | 22 | 1013.9 |
| 20260508220042 | 23 | 338 | 12.9 | 32.2 | 0.00 | 0.00 | 0.00 | 22 | 1014.1 |
| 20260508213017 | 23 | 338 | 14.5 | 32.2 | 0.00 | 0.00 | 0.00 | 22 | 1014.3 |
| 20260508210057 | 23 | 338 | 12.9 | 30.6 | 0.00 | 0.00 | 0.00 | 23 | 1014.7 |
| 20260508203017 | 23 | 338 | 11.3 | 30.6 | 0.00 | 0.00 | 0.00 | 24 | 1015.5 |
| 20260508200017 | 23 | 338 | 11.3 | 30.6 | 0.00 | 0.00 | 0.00 | 23 | 1015.8 |
| 20260508193017 | 22 | 315 | 8.0 | 24.1 | 0.00 | 0.00 | 0.00 | 24 | 1015.9 |
| 20260508190017 | 22 | 338 | 8.0 | 24.1 | 0.00 | 0.00 | 0.00 | 27 | 1016.5 |
| 20260508183017 | 21 | 338 | 8.0 | 25.7 | 0.00 | 0.00 | 0.00 | 29 | 1016.7 |
| 20260508180017 | 20 | 338 | 1.6 | 17.7 | 0.00 | 0.00 | 0.00 | 31 | 1016.5 |
| 20260508173017 | 20 | 203 | 1.6 | 8.0 | 0.00 | 0.00 | 0.00 | 43 | 1017.0 |
| 20260508170017 | 19 | 203 | 1.6 | 8.0 | 0.00 | 0.00 | 0.00 | 45 | 1016.7 |
| 20260508163017 | 18 | 203 | 1.6 | 8.0 | 0.00 | 0.00 | 0.00 | 47 | 1016.4 |
| 20260508160016 | 17 | 0.0 | 4.8 | 0.00 | 0.00 | 0.00 | 49 | 1016.4 | |
| 20260508153016 | 16 | 0.0 | 1.6 | 0.00 | 0.00 | 0.00 | 51 | 1016.0 | |
| 20260508150018 | 14 | 0.0 | 0.0 | 0.00 | 0.00 | 0.00 | 58 | 1015.9 | |
| 20260508143017 | 11 | 0.0 | 1.6 | 0.00 | 0.00 | 0.00 | 60 | 1015.6 | |
| 20260508140017 | 11 | 0.0 | 3.2 | 0.00 | 0.00 | 0.00 | 62 | 1015.7 | |
| 20260508133016 | 11 | 0.0 | 3.2 | 0.00 | 0.00 | 0.00 | 66 | 1015.5 | |
| 20260508130057 | 11 | 0.0 | 3.2 | 0.00 | 0.00 | 0.00 | 61 | 1015.3 | |
| 20260508123016 | 11 | 0.0 | 3.2 | 0.00 | 0.00 | 0.00 | 60 | 1015.0 | |
| 20260508120017 | 12 | 68 | 1.6 | 4.8 | 0.00 | 0.00 | 0.00 | 54 | 1015.2 |
| 20260508113056 | 12 | 90 | 3.2 | 6.4 | 0.00 | 0.00 | 0.00 | 53 | 1015.2 |
| 20260508110016 | 12 | 113 | 1.6 | 6.4 | 0.00 | 0.00 | 0.00 | 55 | 1015.3 |
| 20260508103016 | 12 | 135 | 1.6 | 4.8 | 0.00 | 0.00 | 0.00 | 53 | 1015.3 |
| 20260508100016 | 12 | 90 | 1.6 | 4.8 | 0.00 | 0.00 | 0.00 | 49 | 1015.2 |
| 20260508093016 | 13 | 90 | 1.6 | 4.8 | 0.00 | 0.00 | 0.00 | 57 | 1015.3 |
| 20260508090056 | 14 | 135 | 1.6 | 4.8 | 0.00 | 0.00 | 0.00 | 48 | 1015.2 |
| 20260508083056 | 14 | 68 | 1.6 | 4.8 | 0.00 | 0.00 | 0.00 | 43 | 1014.8 |
| 20260508080016 | 14 | 90 | 1.6 | 6.4 | 0.00 | 0.00 | 0.00 | 43 | 1014.9 |
| 20260508073015 | 15 | 90 | 1.6 | 4.8 | 0.00 | 0.00 | 0.00 | 40 | 1014.9 |
| 20260508070016 | 16 | 68 | 3.2 | 8.0 | 0.00 | 0.00 | 0.00 | 39 | 1015.2 |
| 20260508063017 | 16 | 90 | 3.2 | 9.7 | 0.00 | 0.00 | 0.00 | 37 | 1014.6 |
| 20260508060017 | 16 | 68 | 3.2 | 4.8 | 0.00 | 0.00 | 0.00 | 36 | 1014.0 |